Location: Anciles
(42.5833°N, 0.5167°E)
Time: 01:29:26
(UTC+00:00)

ATLAS 2AS CENTAUR R/B - Pass Details

Date: 10 December 2019
Orbit: 927 x 1285 km, 63.7° (Epoch: 06 January)

Event Time Altitude Azimuth Distance (km) Brightness Sun altitude
Rises 16:43:48 0° 243° (WSW) 4,203 9.2 -3.9°
Reaches altitude 10° 16:46:49 10° 251° (WSW) 3,261 7.1 -4.4°
Maximum altitude 16:54:13 40° 319° (NW) 1,812 4.1 -5.6°
Drops below altitude 10° 17:01:38 10° 27° (NNE) 3,260 4.8 -6.9°
Enters shadow 17:03:59 - 34° (NNE) 3,988 5.2 -7.3°
